Presure
156 141 152 149 154 133 152 152 155 167 93 209 164 193 176 185 149 182 191 218 206 189 171 158 147 165 158 161 158 167 151 164 176 188 165 170 186 151 148 136 174 174 163 134
151 117 150 144 139 155 148 154 195 201 209 170 181 131 181 193 194 213 214 210 211 217 143 179 163 150 173 144 172 166 157 151 161 157 180 159 153 166 155 172 154 142 156 136
169 155 147 149 136 150 166 165 165 173 169 169 163 186 171 188 194 217 218 219 189 223 169 171 170 166 162 152 162 158 156 165 164 161 172 166 149 156 173 139 140 165 161 158
142 158 167 124 160 166 156 151 168 171 175 178 163 183 187 189 200 181 203 220 228 217 192 179 135 128 179 135 207 147 179 152 156 170 165 167 180 169 143 149 126 140 143 156
179 190 167 173 166 183 200 195 196 201 197 171 146 130 191 188 157 206 221 211 211 214 114 134 185 161 129 153 179 179 191 156 204 210 162 180 197 227 168 161 154 154 132 144
205 203 196 205 176 167 161 204 188 203 191 171 177 200 210 154 201 210 213 217 212 221 209 184 204 203 192 194 167 173 174 185 226 218 169 178 151 171 168 211 191 171 170 173
139 175 158 203 207 113 166 163 207 165 205 206 149 147 141 187 224 213 163 229 214 193 217 196 195 196 204 181 180 160 157 238 211 247 177 180 242 162 169 180 193 195 180 146
150 157 167 171 123 183 199 182 171 138 204 190 135 145 161 197 201 161 159 242 210 214 201 203 203 194 189 180 215 286 247 241 239 217 201 182 173 160 169 229 245 196 175 155
150 158 157 146 101 169 173 114 147 153 190 196 144 166 135 189 158 171 219 216 192 194 201 216 204 184 205 198 192 212 281 272 220 218 226 183 202 162 178 243 245 237 197 180
162 151 154 157 150 156 162 174 156 173 191 147 162 154 140 182 178 164 147 212 152 159 212 203 204 201 202 197 184 159 204 262 244 231 230 203 212 198 161 222 229 234 227 193
171 167 162 142 98 115 151 146 142 128 135 132 169 147 151 163 142 147 144 153 146 142 200 199 205 174 196 193 163 166 273 265 245 252 216 227 201 171 159 162 226 219 228 219
206 147 149 159 165 154 147 133 125 131 140 139 195 136 166 170 144 174 147 144 149 139 151 134 137 140 178 172 152 186 227 277 253 239 218 250 247 185 181 168 175 224 215 222
228 234 180 155 155 158 158 149 142 158 119 149 136 161 176 149 146 149 149 145 154 137 138 142 185 159 177 220 208 190 181 188 204 266 216 242 240 184 183 166 204 170 196 220
231 225 252 200 157 150 150 152 117 131 151 146 153 135 119 152 151 158 149 146 158 152 127 152 137 177 139 152 168 162 198 185 176 197 198 191 177 173 167 160 191 163 150 159
226 220 229 156 240 270 148 145 158 129 119 123 125 129 150 128 143 136 151 138 148 153 188 152 133 161 152 178 151 169 159 160 172 188 172 193 152 199 174 174 188 127 190 141
227 218 227 235 254 247 267 144 156 156 155 144 149 154 153 148 148 150 149 134 147 164 186 174 132 144 135 157 155 153 160 141 174 148 159 163 177 188 186 184 206 190 184 186
224 222 223 225 237 250 175 155 144 141 126 145 140 137 114 142 132 139 139 138 145 124 157 139 130 151 183 156 175 132 139 152 140 150 161 174 178 212 221 190 215 215 189 191
220 219 220 217 227 239 237 227 211 147 153 151 129 126 131 149 138 140 196 226 169 152 148 140 223 200 200 212 172 158 143 169 145 174 148 172 171 157 157 196 188 177 156 181
219 219 221 219 230 227 249 232 252 248 250 238 239 169 144 134 138 134 144 145 155 154 226 185 177 236 209 156 159 133 153 158 171 164 170 170 131 195 183 169 165 168 176 174
218 219 217 221 211 214 215 242 241 259 253 234 244 139 131 134 248 159 251 243 197 228 150 193 145 141 140 181 176 150 170 163 191 192 189 166 170 188 179 179 194 196 188 196
224 218 218 209 205 220 255 256 255 269 243 239 256 231 238 133 219 162 169 118 136 197 199 227 181 157 195 172 165 173 177 284 189 171 164 161 186 171 204 210 199 201 208 221
226 216 206 199 231 239 247 246 254 254 241 255 254 210 195 198 196 199 183 183 191 199 206 190 225 135 123 144 151 146 136 156 202 221 201 187 220 193 254 191 188 208 192 192
218 228 224 222 223 224 237 247 274 251 254 230 236 191 195 206 195 134 130 158 180 217 174 218 230 223 218 147 160 171 154 198 127 259 135 229 254 219 222 228 213 235 266 205
215 212 204 208 211 215 242 235 266 313 254 222 190 202 207 219 212 175 165 148 209 194 187 191 165 148 167 183 147 232 229 213 210 202 252 140 216 224 279 280 293 288 279 273
203 213 207 212 204 216 236 246 254 300 205 203 173 204 204 233 180 194 155 147 205 181 187 150 184 131 188 178 163 187 133 123 203 270 252 247 190 211 188 185 218 212 238 249
219 203 191 204 204 195 228 267 215 305 220 248 202 188 201 182 181 202 167 181 182 151 179 174 183 206 195 206 190 155 189 191 216 259 227 219 220 226 228 210 213 215 195 153
Wind_Speed
32 13 17 24 24 11 16 21 17 15 19 15 25 18 16 17 8 25 23 26 26 30 18 14 14 12 8 6 3 2 2 4 8 8 12 12 8 14 10 8 17 22 18 6
32 16 20 26 19 18 17 23 27 25 19 19 26 4 14 18 19 19 23 29 26 28 9 15 22 12 15 8 8 5 5 3 6 12 11 15 16 17 19 19 14 7 16 9
35 24 25 26 14 17 20 23 21 15 16 22 18 24 12 17 21 18 24 28 13 23 22 20 18 17 18 12 17 6 8 8 10 12 15 14 21 21 23 8 10 15 15 17
26 25 27 21 31 23 19 23 21 17 17 23 18 26 16 16 22 19 22 23 19 23 23 10 10 8 18 7 11 12 16 6 6 11 13 16 21 24 18 20 15 16 15 15
42 36 28 31 31 31 33 28 29 27 19 23 15 5 18 20 16 19 22 23 22 22 16 14 23 14 14 11 17 14 18 14 24 27 14 19 22 27 33 28 23 22 16 18
46 40 39 43 33 30 28 35 26 26 20 23 22 22 20 21 21 23 22 20 22 22 26 25 35 28 33 28 13 10 16 25 28 27 17 19 24 25 27 27 28 27 27 27
20 33 28 38 41 11 23 24 32 18 20 24 18 15 16 18 21 26 12 24 22 21 27 28 32 31 25 19 20 9 11 30 25 23 18 20 20 28 26 27 29 33 34 27
32 32 32 27 19 28 33 25 26 18 23 27 14 12 17 17 19 15 11 20 25 23 29 31 29 31 28 24 22 18 23 26 25 24 23 18 24 25 27 26 29 34 37 28
35 33 32 26 10 23 28 11 19 23 23 27 17 21 14 17 23 21 23 29 20 23 23 19 22 22 23 19 23 21 20 20 22 22 22 17 20 26 26 16 20 29 39 39
39 33 37 30 29 29 26 24 21 25 27 23 21 16 17 17 20 21 17 23 15 14 22 25 18 19 18 15 19 22 23 21 20 21 20 18 19 17 22 18 18 19 32 38
37 37 39 30 11 14 26 22 21 22 19 24 19 16 19 19 27 20 18 20 11 16 19 19 20 16 19 18 19 25 18 17 18 22 15 16 16 21 24 23 18 18 22 36
36 38 37 38 35 31 27 24 17 23 22 26 20 23 26 23 25 17 19 19 12 15 19 18 18 18 15 16 22 18 29 15 17 18 17 20 18 15 20 23 21 21 18 24
33 34 33 39 36 32 31 32 25 28 30 26 29 31 33 25 25 21 20 21 16 10 15 13 16 17 14 14 20 26 23 22 34 18 30 21 18 18 14 28 27 26 24 23
31 34 31 37 37 33 34 31 28 23 27 29 30 30 21 22 25 21 26 25 23 11 19 12 15 12 12 21 9 19 29 29 27 39 34 21 21 24 28 16 24 31 18 24
31 36 33 40 32 31 33 30 33 29 21 35 24 27 27 25 25 27 26 24 25 21 21 9 5 14 14 11 17 31 26 22 42 46 22 33 30 35 24 23 27 12 30 21
34 37 34 28 27 29 30 33 35 36 36 36 34 31 27 27 28 33 26 23 27 30 26 20 11 4 21 15 14 13 17 29 35 41 33 33 41 45 40 34 34 33 35 37
35 32 31 31 26 23 35 41 35 38 36 36 36 24 10 32 27 29 28 27 29 18 18 13 14 12 15 15 14 25 19 42 25 39 52 57 55 48 43 38 37 37 40 43
39 35 34 35 26 21 31 39 33 35 37 38 29 30 35 34 26 25 29 30 32 25 16 14 25 15 10 15 27 35 32 48 30 59 32 56 36 37 34 40 38 36 39 43
38 37 35 34 26 29 29 38 31 36 36 34 36 41 37 33 35 31 37 33 30 21 27 24 22 27 18 26 30 12 38 45 58 53 43 54 24 71 51 39 42 45 51 50
43 40 37 34 35 39 47 34 30 36 32 29 36 27 33 21 24 36 26 28 20 19 20 20 22 28 32 21 38 31 49 47 45 54 57 45 53 62 48 45 70 67 61 67
43 40 36 39 42 40 32 38 31 36 32 32 37 30 28 28 23 36 19 25 29 10 6 18 20 19 19 42 37 49 32 31 62 53 50 46 64 56 66 77 64 76 78 74
45 42 44 42 29 28 34 27 27 32 33 38 23 32 40 36 35 19 39 32 21 16 16 18 29 29 28 40 37 32 25 37 55 53 62 59 66 77 57 71 66 67 71 68
42 40 38 34 30 30 25 23 27 28 37 25 31 50 48 36 31 29 23 26 26 35 32 29 28 21 24 31 44 48 39 56 30 48 35 57 46 61 66 70 72 77 61 79
40 39 38 38 34 31 30 33 27 31 39 43 49 45 42 29 32 45 41 33 23 19 27 20 38 36 38 44 34 44 46 51 52 53 44 41 58 51 45 49 51 55 59 62
44 41 42 38 41 37 36 34 30 39 46 50 35 49 40 25 27 32 39 36 15 29 17 37 30 38 46 47 35 41 38 40 43 41 42 42 43 51 48 46 51 52 65 66
48 46 44 46 47 32 37 22 54 31 52 42 40 46 34 36 25 36 31 17 18 36 27 36 37 41 49 49 50 36 44 50 49 44 44 42 43 45 48 49 52 58 58 57
Wind_Direction
260 240 257 260 260 239 269 271 272 281 128 270 291 294 291 298 244 288 279 260 248 267 254 264 307 302 323 308 249 343 236 343 304 240 254 216 231 266 269 264 222 219 217 277
254 218 249 255 253 260 259 266 283 287 290 278 282 271 293 284 278 267 265 262 257 256 342 229 259 304 269 314 269 264 283 285 298 275 266 255 258 239 259 247 267 281 235 281
260 248 248 253 224 253 254 263 267 278 279 277 280 292 289 284 279 258 255 256 277 244 248 248 255 292 288 295 303 265 289 299 286 286 286 253 254 253 238 261 266 260 248 256
246 251 259 224 258 257 248 253 265 272 274 272 273 284 300 291 274 276 268 256 251 244 250 258 272 295 292 305 303 296 304 286 307 285 281 272 267 258 273 258 311 270 270 250
258 265 253 257 255 268 270 271 270 269 268 267 272 258 280 277 276 264 251 255 254 247 302 276 261 277 317 294 306 316 325 308 289 275 293 280 272 252 255 258 255 259 296 273
261 263 261 258 251 263 259 266 265 267 260 264 269 269 275 269 270 270 261 231 244 245 252 264 262 268 281 292 283 319 322 327 279 274 283 271 272 256 256 259 256 252 257 249
251 247 243 258 257 254 248 257 265 242 262 261 269 275 285 267 252 263 291 237 237 283 244 268 276 275 276 292 306 289 282 285 288 271 270 265 271 260 263 260 253 247 250 251
241 239 244 247 238 256 265 267 256 250 257 259 279 290 270 247 265 279 292 254 257 253 263 262 269 277 294 310 329 285 293 282 281 288 280 271 268 264 272 265 251 248 245 242
239 238 241 236 251 236 241 262 232 251 251 251 267 261 265 242 275 280 244 252 258 267 263 256 279 292 295 312 318 344 279 276 288 289 281 263 272 267 273 282 269 250 239 242
243 237 239 238 233 232 235 240 235 242 240 254 257 253 244 254 254 284 317 255 322 339 257 265 287 305 309 308 310 322 342 299 304 307 287 299 295 283 271 282 275 261 243 238
241 239 240 239 226 227 234 229 229 252 249 265 254 246 243 248 277 285 297 298 338 326 273 299 302 322 303 303 324 317 310 297 311 291 316 294 265 255 273 278 261 255 255 246
247 237 237 237 240 232 230 226 231 248 247 248 249 246 253 244 266 262 286 297 327 324 337 319 326 338 299 301 320 334 6 305 302 318 334 282 268 260 263 267 267 264 260 261
245 249 243 238 236 231 232 230 228 233 257 241 263 250 242 263 272 272 275 288 297 329 338 347 301 335 313 23 23 13 339 338 357 296 349 305 290 257 266 256 315 260 260 263
242 249 247 238 237 234 234 232 253 241 235 242 244 266 275 251 261 265 277 291 290 308 297 337 335 296 328 285 336 309 7 358 333 345 334 304 261 252 258 294 280 264 273 269
235 241 245 238 242 240 233 234 228 240 259 264 263 270 258 266 266 278 268 291 288 299 266 273 284 278 279 26 300 11 343 326 338 325 280 306 279 308 294 279 271 301 271 298
232 239 245 243 242 240 243 229 230 227 231 241 243 243 245 251 253 260 271 296 285 273 270 265 273 268 277 276 311 243 296 332 288 296 294 288 286 288 281 262 277 273 269 273
230 230 237 241 235 236 232 235 233 241 247 233 250 243 281 247 270 266 268 284 277 273 284 270 265 267 265 259 171 256 275 250 301 287 291 286 282 284 285 270 275 271 274 278
223 219 223 233 228 231 234 234 231 225 239 234 246 269 268 248 261 263 245 241 260 276 267 260 270 244 252 241 199 223 286 249 304 247 287 281 293 291 292 279 282 285 292 284
217 218 219 225 220 223 234 237 233 227 224 216 218 238 253 270 266 276 264 262 271 278 256 265 273 262 263 235 226 275 272 270 257 275 282 274 297 275 294 289 291 289 289 291
213 213 211 217 219 228 235 240 232 226 224 220 231 241 260 267 228 256 225 226 253 243 269 253 275 278 275 226 228 280 244 266 256 259 261 288 296 287 296 296 289 286 286 286
207 210 209 214 222 231 241 235 231 225 227 230 233 187 200 268 224 252 231 285 272 254 253 287 266 268 320 271 257 242 268 299 253 275 270 291 276 287 279 280 283 286 284 283
203 203 212 223 212 225 232 226 231 228 228 230 215 221 212 200 206 211 228 246 239 293 292 268 271 252 265 270 280 285 283 288 271 274 266 275 275 268 275 282 287 279 286 289
204 195 203 209 214 222 231 244 256 221 225 188 185 214 210 206 207 214 267 260 216 284 246 281 261 264 291 270 269 269 278 281 277 299 288 275 285 279 281 281 280 282 289 282
200 198 210 215 220 228 248 220 247 238 213 179 205 208 195 198 205 254 252 274 240 216 249 222 255 256 253 273 259 280 280 276 281 283 297 288 282 283 303 299 299 297 298 297
203 209 209 213 225 224 234 233 229 207 203 213 242 197 222 220 235 233 263 266 200 252 240 252 275 258 280 280 262 285 272 279 297 300 297 300 297 280 291 305 307 304 320 313
204 200 218 215 222 225 224 231 201 214 204 200 214 238 238 249 236 238 259 268 261 261 269 270 274 278 278 275 284 281 289 298 314 303 304 300 297 305 308 305 315 319 310 287